SCP
0 0 0 0 0 0 0 0 0 0 0 0 0 0 0 0 0 0 0 0 0 0 0 0 0 0 0 0 0 0 0 0 0 0 0 0 0 0 0 0 0 0 0
0 0 0 0 0 0 0 0 0 0 0 0 0 0 0 0 0 0 0 0 0 0 0 0 0 0 0 0 0 0 0 0 0 0 0 0 0 0 0 0 0 0 0
0 0 0 0 0 0 0 0 0 0 0 0 0 0 0 0 0 0 0 0 0 0 0 0 0 0 0 0 0 0 0 0 0 0 0 0 0 0 0 0 0 0 0
0 0 0 0 0 0 0 0 0 0 0 0 0 0 0 0 0 0 0 0 0 0 0 0 0 0 0 0 0 0 0 0 0 0 0 0 0 0 0 0 0 0 0
0 0 0 0 0 0 0 0 0 0 0 0 0 0 0 0 0 0 0 0 0 0 0 0 0 0 0 0 0 0 0 0 0 0 0 0 0 0 0 0 0 0 0
0 0 0 0 0 0 0 0 0 0 0 0 0 0 0 0 0 0 0 0 0 0 0 0 0 0 0 0 0 0 0 0 0 0 0 0 0 0 0 0 0 0 0
0 0 0 0 0 0 0 0 0 0 0 0 0 0 0 0 0 0 0 0 0 0 0 0 0 0 0 0 0 0 0 0 0 0 0 0 0 0 0 0 0 0 0
0 0 0 0 0 0 0 0 0 0 0 0 0 0 0 0 0 0 0 0 0 0 0 0 0 0 0 0 0 0 0 0 0 0 0 0 0 0 0 0 0 0 0
0 0 0 0 0 0 0 0 0 0 0 0 0 0 0 0 0 0 0 0 0 0 0 0 0 0 0 0 0 0 0 0 0 0 0 0 0 0 0 0 0 0 0
0 0 0 0 0 0 0 0 0 0 0 0 0 0 0 0 0 0 0 0 0 0 0 0 0 0 0 0 0 0 0 0 0 0 0 0 0 0 0 0 0 0 0
0 0 0 0 0 0 0 0 0 0 0 0 0 0 0 0 0 0 0 0 0 0 0 0 0 0 0 0 0 0 0 0 0 0 0 0 0 0 0 0 0 0 0
0 0 0 0 0 0 0 0 0 0 0 0 0 0 0 0 0 0 0 0 0 0 0 0 0 0 0 0 0 0 0 0 0 0 0 0 0 0 0 0 0 0 0
0 0 0 0 0 0 0 0 0 0 0 0 0 0 0 0 0 0 0 0 0 0 0 0 0 0 0 0 0 0 0 0 0 0 0 0 0 0 0 0 0 0 0
0 0 0 0 0 0 0 0 0 0 0 0 0 0 0 0 0 0 0 0 0 0 0 0 0 0 0 0 0 0 0 0 0 0 0 0 0 0 0 0 0 0 0
0 0 0 0 0 0 0 0 0 0 0 0 0 0 0 0 0 0 0 0 0 0 0 0 0 0 0 0 0 0 0 0 0 0 0 0 0 0 0 0 0 0 0
0 0 0 0 0 0 0 0 0 0 0 0 0 0 0 0 0 0 0 0 0 0 0 0 0 0 0 0 0 0 0 0 0 0 0 0 0 0 0 0 0 0 0
0 0 0 0 0 0 0 0 0 0 0 0 0 0 0 0 0 0 0 0 0 0 0 0 0 0 0 0 0 0 0 0 0 0 0 0 0 0 0 0 0 0 0
0 0 0 0 0 0 0 0 0 0 0 0 0 0 0 0 0 0 0 0 0 0 0 0 0 0 0 0 0 0 0 0 0 0 0 0 0 0 0 0 0 0 0
0 0 0 0 0 0 0 0 0 0 0 0 0 0 0 0 0 0 0 0 0 0 0 0 0 0 0 0 0 0 0 0 0 0 0 0 0 0 0 0 0 0 0
0 0 0 0 0 0 0 0 0 0 0 0 0 0 0 0 0 0 0 0 0 0 0 0 0 0 0 0 0 0 0 0 0 0 0 0 0 0 0 0 0 0 0
0 0 0 0 0 0 0 0 0 0 0 0 0 0 0 0 0 0 0 0 0 0 0 0 0 0 0 0 0 0 0 0 0 0 0 0 0 0 0 0 0 0 0
0 0 0 0 0 0 0 0 0 0 0 0 0 0 0 0 0 0 0 0 0 0 0 0 0 0 0 0 0 0 0 0 0 0 0 0 0 0 0 0 0 0 0
0 0 0 0 0 0 0 0 0 0 0 0 0 0 0 0 0 0 0 0 0 0 0 0 0 0 0 0 0 0 0 0 0 0 0 0 0 0 0 0 0 0 0
0 0 0 0 0 0 0 0 0 0 0 0 0 0 0 0 0 0 0 0 0 0 0 0 0 0 0 0 0 0 0 0 0 0 0 0 0 0 0 0 0 0 0
0 0 0 0 0 0 0 0 0 0 0 0 0 0 0 0 0 0 0 0 0 0 0 0 0 0 0 0 0 0 0 0 0 0 0 0 0 0 0 0 0 0 0
0 0 0 0 0 0 0 0 0 0 0 0 0 0 0 0 0 0 0 0 0 0 0 0 0 0 0 0 0 0 0 0 0 0 0 0 0 0 -0 -0 0 0 0
Wind_Speed
1 1 1 1 1 1 1 1 1 1 1 1 1 0 0 0 0 0 1 1 1 1 1 1 2 1 1 1 1 1 1 2 3 2 1 1 0 1 2 2 1 1 2
1 1 1 1 1 1 1 1 1 1 1 1 1 1 1 1 1 1 1 1 1 2 2 2 2 1 2 2 2 2 2 2 2 3 2 1 1 1 1 1 2 2 2
0 1 1 1 0 1 1 1 1 1 2 2 1 1 1 1 1 1 1 1 2 2 2 3 3 2 2 2 2 2 2 2 2 2 2 1 1 1 1 2 1 1 2
0 0 1 1 1 1 1 1 1 1 2 2 2 1 2 2 2 2 1 2 2 2 2 3 3 3 3 3 2 2 2 2 2 2 2 1 1 1 1 1 2 2 2
1 1 1 2 1 1 1 1 2 2 2 2 2 2 2 2 2 2 2 2 2 2 2 2 2 3 3 3 3 2 2 2 2 3 2 2 1 1 2 1 1 2 2
1 1 1 1 1 1 2 2 2 2 2 2 2 2 2 2 3 4 3 2 2 3 2 2 2 2 3 4 4 4 4 4 4 3 3 3 4 3 2 2 1 1 2
1 1 1 1 1 2 2 2 2 2 2 2 2 2 2 3 5 4 3 2 2 2 3 3 2 2 3 3 3 4 4 5 6 5 5 5 4 4 3 3 3 2 3
1 1 1 1 2 2 2 2 2 2 2 2 3 2 3 3 4 4 3 2 2 2 2 3 3 3 3 3 3 3 3 3 4 4 4 4 3 3 3 3 3 2 2
2 2 2 2 2 2 2 3 2 2 2 2 3 2 2 3 4 3 3 2 2 2 2 2 3 3 5 5 3 3 3 3 4 4 4 4 4 4 3 2 2 2 2
3 3 2 2 3 3 3 3 3 2 2 2 3 2 3 3 4 4 3 2 2 2 2 2 4 5 5 5 4 4 4 3 2 2 2 2 2 3 3 4 4 3 2
2 2 3 3 3 3 3 2 2 2 2 2 3 3 3 3 5 5 4 2 2 2 2 2 3 5 5 5 4 3 5 3 2 2 2 2 1 1 2 2 2 4 4
2 2 3 3 3 2 2 2 2 2 2 2 2 3 3 3 4 5 5 5 4 3 3 2 3 5 5 5 4 4 3 1 1 1 2 2 2 2 1 1 2 2 3
2 3 3 3 3 2 2 3 2 2 2 2 2 3 3 3 3 6 6 6 5 3 3 5 5 6 4 3 3 3 2 2 2 2 2 2 2 1 1 1 0 0 1
3 3 3 3 3 2 2 2 2 3 3 3 3 4 3 3 3 3 3 3 4 3 2 2 4 4 3 2 1 2 1 1 2 3 2 1 1 1 1 1 1 1 0
3 3 3 3 3 3 3 3 4 4 5 5 4 4 4 5 6 7 5 3 3 3 1 1 0 0 1 1 1 1 1 1 1 1 2 1 1 1 1 1 1 1 1
3 3 3 3 3 3 3 4 6 6 8 9 9 7 6 8 9 9 9 8 6 4 2 1 2 2 3 3 2 2 2 2 2 2 2 2 2 2 2 1 1 2 2
4 4 3 3 3 3 3 3 4 5 6 8 8 8 8 8 9 9 8 7 5 3 2 2 2 3 3 2 3 3 3 2 2 2 3 3 2 2 2 2 2 2 2
4 4 4 4 3 3 4 4 4 4 4 4 6 8 8 8 8 7 7 4 2 2 2 3 3 3 3 3 3 3 2 2 2 2 2 2 2 2 2 3 3 3 2
4 3 3 3 3 3 3 3 3 4 4 4 4 5 6 7 7 7 4 2 3 3 3 3 3 3 3 3 3 2 3 3 3 2 3 3 3 3 3 3 3 3 3
3 4 3 3 3 3 3 3 4 4 4 4 4 4 3 3 3 3 2 2 3 3 3 3 3 3 3 3 3 3 3 3 3 3 3 3 3 3 4 4 3 3 3
3 3 4 3 3 3 3 4 4 4 4 5 5 5 6 3 3 3 3 3 3 4 4 3 3 3 3 3 3 3 4 3 3 3 3 3 3 3 3 3 3 3 2
2 3 3 3 3 3 3 4 4 4 5 5 4 4 6 3 3 3 3 3 3 3 3 3 3 3 4 4 4 4 4 4 4 4 4 3 3 3 3 3 3 3 3
2 3 3 3 3 4 4 4 4 4 5 5 4 3 3 3 3 4 4 3 3 3 3 3 3 3 3 3 4 4 5 5 5 5 5 4 4 4 4 4 4 4 4
2 3 3 3 3 3 4 4 4 4 4 4 4 3 4 4 4 4 4 3 3 3 3 3 4 5 6 4 4 4 4 4 4 4 6 5 5 4 4 4 4 5 4
3 3 3 3 3 3 4 4 4 4 4 4 4 4 4 3 4 3 3 3 3 3 4 4 3 4 5 6 5 5 6 7 6 4 5 5 5 5 5 4 4 4 4
3 3 3 3 3 3 3 4 4 4 4 3 3 3 3 3 3 3 3 3 3 3 3 3 4 5 5 5 6 6 7 7 7 7 5 5 5 5 5 4 5 4 4
Wind_Direction
24 21 32 27 35 44 39 358 349 349 340 327 313 292 297 289 250 205 223 216 203 215 203 200 227 222 211 214 209 212 226 219 242 274 279 305 273 313 320 317 321 322 320
356 359 353 8 28 32 6 346 349 329 323 314 309 294 286 289 259 226 220 218 212 217 217 217 231 219 222 223 212 213 217 210 216 249 273 285 270 268 297 319 338 338 321
352 351 342 338 349 351 335 333 334 324 319 318 317 291 283 274 259 248 220 218 223 225 220 221 229 214 224 229 229 223 219 217 214 219 257 276 280 281 317 337 342 331 330
341 315 316 311 298 303 312 313 312 305 295 294 296 275 273 271 259 246 229 220 223 227 223 221 223 217 222 222 224 228 217 208 204 214 237 256 265 270 263 311 328 336 324
348 312 305 321 334 341 329 324 324 319 307 297 298 288 276 267 248 240 238 225 219 225 229 226 227 229 227 224 217 212 208 215 215 216 227 235 242 236 239 254 276 309 307
283 304 321 325 326 328 322 316 315 313 312 307 294 282 280 268 262 262 256 241 230 223 224 229 230 233 235 237 229 226 219 215 219 222 228 228 235 236 246 232 240 273 288
273 296 317 316 308 309 312 315 308 304 303 300 295 283 276 271 275 267 263 248 235 233 224 224 232 237 235 233 235 242 244 240 230 224 227 233 230 223 217 228 234 250 257
248 275 295 302 299 302 299 292 295 296 290 288 287 285 281 276 276 275 283 266 233 234 227 222 221 229 228 227 225 234 242 248 243 232 226 234 234 223 216 222 224 258 269
240 258 265 270 277 282 283 287 290 290 291 292 292 286 282 286 278 277 284 255 242 243 236 227 222 228 236 235 225 233 252 266 273 257 249 250 246 241 219 185 191 205 256
244 254 256 256 257 262 271 281 286 281 281 290 295 297 285 285 281 280 281 251 243 246 247 243 237 237 238 237 223 220 239 256 262 281 278 278 251 232 220 207 200 205 223
257 261 258 255 259 258 266 274 274 275 280 283 289 293 286 282 279 276 270 258 239 240 243 249 251 249 245 243 240 226 237 249 228 231 245 244 236 227 231 231 219 209 214
251 255 259 261 261 259 257 267 268 259 261 267 279 289 287 282 276 274 271 265 259 241 239 244 250 254 250 252 253 242 243 236 187 220 238 242 238 237 241 236 228 240 248
249 254 261 265 263 259 247 251 256 247 248 259 262 272 281 284 281 280 278 274 267 262 245 245 252 261 260 263 264 259 245 191 189 215 232 244 247 233 237 251 237 217 276
243 256 256 255 264 261 255 244 240 238 245 252 256 264 274 279 275 271 272 267 261 259 261 262 263 262 261 263 252 263 237 213 209 217 230 244 251 234 236 225 208 198 311
247 255 257 253 252 258 258 249 249 244 238 247 250 251 255 265 266 268 272 267 249 238 246 276 261 230 231 233 243 241 219 203 212 211 203 212 220 233 246 234 213 191 198
245 247 246 252 253 254 264 282 271 268 271 269 267 266 267 267 274 273 272 273 266 239 227 209 220 223 227 226 224 229 220 214 209 202 201 204 211 218 236 239 212 195 203
238 246 246 244 245 249 252 261 281 290 281 279 277 275 273 274 274 275 272 268 259 226 212 212 223 228 229 224 220 221 227 220 204 204 208 208 208 210 213 223 212 199 209
240 244 243 239 237 239 242 249 256 269 285 287 287 285 285 283 283 282 274 263 248 225 213 219 228 229 226 226 225 226 227 215 206 210 212 209 204 203 210 222 216 206 209
242 240 240 241 238 238 242 246 250 254 263 279 293 294 292 289 289 288 275 234 221 230 231 231 232 229 228 228 228 224 220 219 217 211 212 209 204 202 215 224 219 204 197
241 249 247 238 240 241 239 241 246 250 258 265 269 277 287 285 273 272 255 240 234 237 235 235 236 231 225 222 221 217 217 219 217 218 217 213 209 206 216 222 213 202 205
244 246 241 238 236 238 240 241 246 247 251 258 263 267 267 265 258 254 250 243 237 239 239 237 234 229 225 221 217 215 215 218 214 212 214 213 205 207 212 216 212 199 193
247 244 239 239 241 241 245 245 246 248 251 256 266 271 270 266 257 258 257 257 252 245 237 232 233 228 222 218 214 213 215 217 214 208 208 208 206 206 207 206 197 189 187
243 247 249 248 246 248 251 248 247 249 253 253 256 258 257 253 254 255 256 257 255 253 246 233 233 236 230 226 220 213 214 217 213 203 199 203 205 205 202 203 195 189 196
252 250 252 255 251 247 249 253 252 254 255 256 254 253 251 249 250 254 256 255 251 249 246 240 237 236 236 236 228 223 223 221 209 204 200 201 203 203 201 199 200 195 197
254 251 251 253 253 254 256 259 259 259 259 258 257 256 255 251 250 252 252 252 250 250 248 246 241 238 237 238 236 231 228 228 222 204 197 199 203 203 198 198 198 192 194
261 259 259 260 259 258 258 263 266 266 266 264 263 261 261 259 255 252 252 252 254 254 253 248 242 242 245 243 240 236 230 227 219 209 197 192 196 199 194 198 195 197 194